Dennheritz, Germany

5:30 PM CET on February 25, 2017 (GMT +0100)
Nobitz

Weather History for EDAC - October, 2013

Change the Weather History Date:

Wednesday, October 9, 2013

  Actual Average (EDDP) Record (EDDP)
Temperature  
Mean Temperature 58 °F -  
Max Temperature 64 °F 57 °F 73 °F (2014)
Min Temperature 53 °F 43 °F 35 °F (2011)
Degree Days  
Heating Degree Days 6    
Growing Degree Days 8 (Base 50)    
Moisture  
Dew Point 47 °F    
Average Humidity 64    
Maximum Humidity 82    
Minimum Humidity 49    
Precipitation  
Precipitation 0.00 in - - ()
Sea Level Pressure  
Sea Level Pressure 30.04 in    
Wind  
Wind Speed 6 mph ()    
Max Wind Speed 10 mph    
Max Gust Speed -    
Visibility 5.6 miles    
Events      
Averages and records for this station are not official NWS values.
T = Trace of Precipitation, MM = Missing Value Source: Averaged Metar Reports

Daily Weather History Graph

Daily Weather History Graph

Search for Another Location

Airport or City:

Trip Planner

Search our weather history database for the weather conditions in past years. The results will help you decide how hot, cold, wet, or windy it might be!

Date:

Astronomy

Oct. 09, 2013 Rise Set
Actual Time 7:23 AM CEST 6:30 PM CEST
Civil Twilight 6:50 AM CEST 7:03 PM CEST
Nautical Twilight 6:12 AM CEST 7:41 PM CEST
Astronomical Twilight 5:33 AM CEST 8:19 PM CEST
Moon 12:28 PM CEST (10/9) 9:21 PM CEST (10/9)
Length of Visible Light 12h 12m
Length of Day
11h 06m
Waxing Crescent, 22% of the Moon is Illuminated
Oct 9
Waxing Crescent
Oct 12
First Quarter
Oct 19
Full
Oct 27
Last Quarter
Nov 3
New

Hourly Weather History & Observations

Time (CEST) Temp. Dew Point Humidity Pressure Visibility Wind Dir Wind Speed Gust Speed Precip Events Conditions
8:20 AM 53.6 °F 48.2 °F 82% 30.15 in 5.0 mi South 4.6 mph - N/A   Mostly Cloudy
8:50 AM 53.6 °F 48.2 °F 82% 30.15 in 5.6 mi South 3.5 mph - N/A   Scattered Clouds
9:20 AM 53.6 °F 48.2 °F 82% 30.12 in 5.6 mi South 3.5 mph - N/A   Scattered Clouds
9:50 AM 55.4 °F 48.2 °F 77% 30.12 in 5.6 mi South 4.6 mph - N/A   Scattered Clouds
10:20 AM 57.2 °F 50.0 °F 77% 30.12 in 5.6 mi SSW 6.9 mph - N/A   Scattered Clouds
10:50 AM 59.0 °F 48.2 °F 67% 30.12 in 5.6 mi SSW 6.9 mph - N/A   Partly Cloudy
11:20 AM 60.8 °F 48.2 °F 63% 30.12 in 5.6 mi SSW 8.1 mph - N/A   Unknown
11:50 AM 60.8 °F 48.2 °F 63% 30.09 in - WSW 9.2 mph - N/A   Clear
12:20 PM 62.6 °F 48.2 °F 59% 30.09 in - SSW 8.1 mph - N/A   Clear
12:50 PM 62.6 °F 46.4 °F 55% 30.06 in 5.6 mi SSW 8.1 mph - N/A   Scattered Clouds
1:20 PM 62.6 °F 48.2 °F 59% 30.06 in 5.6 mi SW 8.1 mph - N/A   Scattered Clouds
1:50 PM 62.6 °F 46.4 °F 55% 30.04 in 5.6 mi WSW 6.9 mph - N/A   Scattered Clouds
2:20 PM 64.4 °F 46.4 °F 52% 30.04 in 6.2 mi WSW 6.9 mph - N/A   Partly Cloudy
2:50 PM 64.4 °F 44.6 °F 49% 30.01 in 6.2 mi WSW 8.1 mph - N/A   Partly Cloudy
3:50 PM 64.4 °F 46.4 °F 52% 29.98 in - WSW 8.1 mph - N/A   Clear
4:20 PM 62.6 °F 46.4 °F 55% 29.98 in - WSW 6.9 mph - N/A   Clear
4:50 PM 62.6 °F 48.2 °F 59% 29.95 in - WSW 10.4 mph - N/A   Clear
5:20 PM 60.8 °F 48.2 °F 63% 29.95 in - WSW 8.1 mph - N/A   Clear
5:50 PM 60.8 °F 46.4 °F 59% 29.95 in - WSW 6.9 mph - N/A   Clear
6:20 PM 59.0 °F 46.4 °F 63% 29.95 in - SW 10.4 mph - N/A   Clear
6:50 PM 59.0 °F 46.4 °F 63% 29.95 in - SW 9.2 mph - N/A   Clear
7:20 PM 59.0 °F 46.4 °F 63% 29.92 in - SSW 10.4 mph - N/A   Clear
7:50 PM 57.2 °F 46.4 °F 67% 29.92 in - SSW 8.1 mph - N/A   Clear